Hayward, WI

12:54 PM CDT on July 22, 2017 (GMT -0500)
Sawyer County

Weather History for KHYR - December, 2012

Change the Weather History Date:

Wednesday, December 12, 2012

  Actual Average Record
Temperature  
Mean Temperature 18 °F -  
Max Temperature 39 °F 29 °F 46 °F (1998)
Min Temperature -2 °F 7 °F -20 °F (2000)
Degree Days  
Heating Degree Days 46    
Moisture  
Dew Point 14 °F    
Average Humidity 72    
Maximum Humidity 84    
Minimum Humidity 57    
Precipitation  
Precipitation 0.00 in - - ()
Sea Level Pressure  
Sea Level Pressure 30.00 in    
Wind  
Wind Speed 4 mph (South)    
Max Wind Speed 13 mph    
Max Gust Speed 22 mph    
Visibility 10 miles    
Events      
Averages and records for this station are not official NWS values.
T = Trace of Precipitation, MM = Missing Value Source: NWS Daily Summary

Daily Weather History Graph

Daily Weather History Graph

Search for Another Location

Airport or City:

Trip Planner

Search our weather history database for the weather conditions in past years. The results will help you decide how hot, cold, wet, or windy it might be!

Date:

Astronomy

Dec. 12, 2012 Rise Set
Actual Time 7:39 AM CST 4:20 PM CST
Civil Twilight 7:04 AM CST 4:54 PM CST
Nautical Twilight 6:26 AM CST 5:32 PM CST
Astronomical Twilight 5:50 AM CST 6:09 PM CST
Moon 6:42 AM CST (12/12) 3:58 PM CST (12/12)
Length of Visible Light 9h 50m
Length of Day
8h 41m
Waning Crescent, 1% of the Moon is Illuminated
Dec 12
Waning Crescent
Dec 13
New
Dec 19
First Quarter
Dec 28
Full
Jan 4
Last Quarter

Hourly Weather History & Observations

Time (CST) Temp. Windchill Dew Point Humidity Pressure Visibility Wind Dir Wind Speed Gust Speed Precip Events Conditions
12:53 AM -0.9 °F - -7.1 °F 75% 30.08 in 10.0 mi Calm Calm - N/A   Clear
1:53 AM -2.0 °F - -7.1 °F 79% 30.11 in 10.0 mi Calm Calm - N/A   Clear
2:53 AM -2.9 °F - -7.1 °F 82% 30.11 in 10.0 mi Calm Calm - N/A   Clear
3:53 AM -0.0 °F - -6.0 °F 76% 30.09 in 10.0 mi Calm Calm - N/A   Clear
4:53 AM 3.0 °F - -0.9 °F 84% 30.09 in 10.0 mi Calm Calm - N/A   Partly Cloudy
5:53 AM 10.9 °F 4.7 °F 7.0 °F 84% 30.09 in 8.0 mi SSE 3.5 mph - N/A   Scattered Clouds
6:53 AM 12.9 °F 3.8 °F 9.0 °F 84% 30.08 in 9.0 mi SE 5.8 mph - N/A   Overcast
7:53 AM 14.0 °F 6.5 °F 9.0 °F 80% 30.06 in 8.0 mi SE 4.6 mph - N/A   Clear
8:53 AM 16.0 °F 7.4 °F 10.9 °F 81% 30.05 in 10.0 mi Variable 5.8 mph - N/A   Partly Cloudy
9:53 AM 19.9 °F 9.3 °F 14.0 °F 78% 30.03 in 10.0 mi SSE 9.2 mph 21.9 mph N/A   Overcast
10:53 AM 23.0 °F 13.1 °F 17.1 °F 78% 30.01 in 10.0 mi SSE 9.2 mph - N/A   Overcast
11:53 AM 26.1 °F 16.2 °F 19.0 °F 75% 29.98 in 10.0 mi South 10.4 mph - N/A   Overcast
12:53 PM - - - N/A% 29.87 in 10.0 mi South 6.9 mph - N/A   Overcast
1:53 PM 32.0 °F 24.8 °F 21.9 °F 66% 29.95 in 10.0 mi SSE 8.1 mph - N/A   Overcast
2:53 PM 32.0 °F - 23.0 °F 69% 29.94 in 10.0 mi Calm Calm - N/A   Overcast
3:53 PM 32.0 °F 27.5 °F 24.1 °F 73% 29.94 in 10.0 mi SSE 4.6 mph - N/A   Clear
4:53 PM 34.0 °F 28.8 °F 24.1 °F 67% 29.94 in 10.0 mi South 5.8 mph - N/A   Clear
5:53 PM 34.0 °F 28.8 °F 24.1 °F 67% 29.93 in 10.0 mi South 5.8 mph - N/A   Partly Cloudy
6:53 PM 35.1 °F 30.1 °F 25.0 °F 67% 29.94 in 10.0 mi Variable 5.8 mph - N/A   Overcast
7:53 PM 36.0 °F 31.1 °F 25.0 °F 64% 29.94 in 10.0 mi South 5.8 mph - N/A   Overcast
8:53 PM 39.0 °F 31.4 °F 25.0 °F 57% 29.94 in 10.0 mi SSW 12.7 mph 18.4 mph N/A   Overcast
9:53 PM 39.0 °F 33.4 °F 25.0 °F 57% 29.95 in 10.0 mi SSW 8.1 mph 19.6 mph N/A   Overcast
10:53 PM 39.0 °F 34.0 °F 25.0 °F 57% 29.96 in 10.0 mi SSW 6.9 mph - N/A   Overcast
11:53 PM 37.9 °F 33.5 °F 24.1 °F 57% 29.96 in 10.0 mi SSW 5.8 mph - N/A   Clear